Find Starlink 31446

NORAD ID: 59315 Int'l Des: 2024-056 Owner: SPXS Country: US Constellation: starlink operational
LEOCIRCULAR

当前视图

正在加载3D地球...

About Starlink 31446

Starlink 31446 (NORAD 59315) is a starlink constellation satellite (v2 mini) launched Mar 24, 2024 by SPXS of US. It operates in LEO, CIRCULAR orbit with a mass of 730.00 kg.

即将过境

Passes for default location (London). Set your location on the main map for personalized predictions.

高度历史

Loading altitude history...

两行轨道根数

1 59315U 24056V 26264.56190493 -.00000261 00000-0 40772-7 0 9994
2 59315 43.0037 204.2504 0001340 263.5573 96.5126 15.27573367141111
Epoch: Sep 21, 2026 • Age: 6 hours

当前状态

高度 487.8 km
远地点 / 近地点 N/A
速度 7.62 km/s
星下点 -22.72°S, 121.87°E
发射日期 Mar 24, 2024
运行时间 2.4 years
类型 internet

技术详情

分类 Payload
质量 730.00 kg
干质量 700.00 kg
长度 0.30 m
跨度 29.00 m
形状 ? Box + pan
制造商 SPXS
平台类型 Starlink V2M
阶段状态 In Orbit
所有者/国家 SPXS/US

Most Searched